User: anonymous   Login
Location: Brachbach
(49.1847°N, 9.7240°E)
Time: 18:34:43
(UTC+00:00)
Language:

SL-8 R/B - Orbit

View from above orbital plane
View from above orbital plane
View from above satellite
View from above satellite

Ground track
Ground track

The orbit data is extracted from the following two-line orbital elements,

1 33066U 08031G   24202.49634891  .00001185  00000-0  22127-3 0  9996
2 33066  48.4419 226.7133 0008008 274.0119  85.9877 14.71382683863817
Epoch (UTC): 20 July 2024 11:54:44
Eccentricity: 0.0008008
inclination: 48.4419°
perigee height: 651 km
apogee height: 662 km
right ascension of ascending node: 226.7133°
argument of perigee: 274.0119°
revolutions per day: 14.71382683
mean anomaly at epoch: 85.9877°
orbit number at epoch: 86381

The dashed part of the orbit path shows where the satellite is in the earth's shadow,  

DLR